timestamp,wind_dir_avg,wind_spd_avg,wind_spd_max_dir,wind_spd_gust,battery_voltage,lat,long
2023-03-12 00:04:00+00:00,20.0,9.68,22.0,10.87,12.33,47.59359,-54.27349
2023-03-12 00:14:00+00:00,15.0,9.72,18.0,11.16,12.33,47.59359,-54.27349
2023-03-12 00:24:00+00:00,18.0,8.88,22.0,9.96,12.33,47.59359,-54.27349
2023-03-12 00:34:00+00:00,6.0,7.64,23.0,8.7,12.33,47.59359,-54.27349
2023-03-12 00:44:00+00:00,3.0,7.24,357.0,8.68,12.33,47.59359,-54.27349
2023-03-12 00:54:00+00:00,5.0,8.06,16.0,9.76,12.33,47.59359,-54.27349
2023-03-12 01:04:00+00:00,6.0,7.47,353.0,8.63,12.33,47.59359,-54.27349
2023-03-12 01:14:00+00:00,14.0,8.51,23.0,9.9,12.25,47.59359,-54.27349
2023-03-12 01:24:00+00:00,17.0,8.75,20.0,10.37,12.25,47.59359,-54.27349
2023-03-12 01:34:00+00:00,21.0,8.92,22.0,10.59,12.25,47.59359,-54.27349
2023-03-12 01:44:00+00:00,21.0,8.67,19.0,9.66,12.25,47.59359,-54.27349
2023-03-12 01:54:00+00:00,22.0,9.48,24.0,10.26,12.25,47.59359,-54.27349
2023-03-12 02:04:00+00:00,25.0,8.12,26.0,9.03,12.25,47.59359,-54.27349
2023-03-12 02:14:00+00:00,24.0,9.54,35.0,11.68,12.25,47.59359,-54.27349
2023-03-12 02:24:00+00:00,23.0,9.67,15.0,11.06,12.25,47.59359,-54.27349
2023-03-12 02:34:00+00:00,21.0,9.53,8.0,12.52,12.25,47.59359,-54.27349
2023-03-12 02:44:00+00:00,18.0,9.72,19.0,11.0,12.25,47.59359,-54.27349
2023-03-12 02:54:00+00:00,18.0,10.57,19.0,11.87,12.25,47.59359,-54.27349
2023-03-12 03:04:00+00:00,8.0,8.5,14.0,10.13,12.25,47.59359,-54.27349
2023-03-12 03:14:00+00:00,6.0,8.83,352.0,11.15,12.25,47.59359,-54.27349
2023-03-12 03:24:00+00:00,5.0,8.59,359.0,10.64,12.25,47.59359,-54.27349
2023-03-12 03:34:00+00:00,4.0,7.87,3.0,9.34,12.25,47.59359,-54.27349
2023-03-12 03:44:00+00:00,12.0,8.98,20.0,11.14,12.25,47.59359,-54.27349
2023-03-12 03:54:00+00:00,19.0,9.98,17.0,11.84,12.25,47.59359,-54.27349
2023-03-12 04:04:00+00:00,16.0,9.05,27.0,10.15,12.25,47.59359,-54.27349
2023-03-12 04:14:00+00:00,16.0,9.14,9.0,10.71,12.17,47.59359,-54.27349
2023-03-12 04:24:00+00:00,16.0,10.01,350.0,11.94,12.17,47.59359,-54.27349
2023-03-12 04:34:00+00:00,12.0,11.73,14.0,13.96,12.17,47.59359,-54.27349
2023-03-12 04:44:00+00:00,14.0,9.79,18.0,11.16,12.17,47.59359,-54.27349
2023-03-12 04:54:00+00:00,18.0,9.93,21.0,11.03,12.17,47.59359,-54.27349
2023-03-12 05:04:00+00:00,16.0,10.21,17.0,12.12,12.17,47.59359,-54.27349
2023-03-12 05:14:00+00:00,18.0,12.62,18.0,14.48,12.17,47.59359,-54.27349
2023-03-12 05:24:00+00:00,12.0,9.79,17.0,12.47,12.17,47.59359,-54.27349
2023-03-12 05:34:00+00:00,12.0,9.97,16.0,12.04,12.17,47.59359,-54.27349
2023-03-12 05:44:00+00:00,13.0,10.35,10.0,12.33,12.17,47.59359,-54.27349
2023-03-12 05:54:00+00:00,22.0,10.49,23.0,11.99,12.17,47.59359,-54.27349
2023-03-12 06:04:00+00:00,21.0,11.26,17.0,12.89,12.17,47.59359,-54.27349
2023-03-12 06:14:01+00:00,24.0,10.68,22.0,12.48,12.17,47.59359,-54.27349
2023-03-12 06:24:01+00:00,22.0,10.46,26.0,13.26,12.17,47.59359,-54.27349
2023-03-12 06:34:01+00:00,24.0,10.39,23.0,11.39,12.17,47.59359,-54.27349
2023-03-12 06:44:01+00:00,21.0,11.14,22.0,12.99,12.17,47.59359,-54.27349
2023-03-12 06:54:01+00:00,21.0,9.58,9.0,10.65,12.17,47.59359,-54.27349
2023-03-12 07:04:01+00:00,19.0,9.7,17.0,11.04,12.17,47.59359,-54.27349
2023-03-12 07:14:00+00:00,15.0,9.25,18.0,10.45,12.17,47.59359,-54.27349
2023-03-12 07:24:00+00:00,16.0,9.13,18.0,10.3,12.17,47.59359,-54.27349
2023-03-12 07:34:00+00:00,20.0,8.72,23.0,9.92,12.17,47.59359,-54.27349
2023-03-12 07:44:00+00:00,9.0,6.96,9.0,8.93,12.17,47.59359,-54.27349
2023-03-12 07:54:00+00:00,9.0,7.65,20.0,8.94,12.17,47.59359,-54.27349
2023-03-12 08:04:00+00:00,13.0,8.83,15.0,10.83,12.17,47.59359,-54.27349
2023-03-12 08:14:00+00:00,0.0,6.58,357.0,7.82,12.09,47.59359,-54.27349
2023-03-12 08:24:00+00:00,1.0,7.19,3.0,8.74,12.09,47.59359,-54.27349
2023-03-12 08:34:00+00:00,0.0,8.32,0.0,9.96,12.09,47.59359,-54.27349
2023-03-12 08:44:00+00:00,1.0,8.6,5.0,9.98,12.09,47.59359,-54.27349
2023-03-12 08:54:00+00:00,2.0,8.85,359.0,10.09,12.09,47.59359,-54.27349
2023-03-12 09:04:00+00:00,0.0,8.38,0.0,10.7,12.09,47.59359,-54.27349
2023-03-12 09:14:00+00:00,10.0,9.03,17.0,10.45,12.09,47.59359,-54.27349
2023-03-12 09:24:00+00:00,4.0,7.73,19.0,9.12,12.09,47.59359,-54.27349
2023-03-12 09:34:00+00:00,8.0,8.48,356.0,9.48,12.09,47.59359,-54.27349
2023-03-12 09:44:00+00:00,1.0,8.33,4.0,9.99,12.09,47.59359,-54.27349
2023-03-12 09:54:00+00:00,1.0,7.37,23.0,8.62,12.09,47.59359,-54.27349
2023-03-12 10:04:00+00:00,1.0,8.72,1.0,9.33,12.09,47.59359,-54.27349
2023-03-12 10:14:00+00:00,7.0,7.73,6.0,9.42,12.09,47.59359,-54.27349
2023-03-12 10:24:00+00:00,5.0,8.15,6.0,9.41,12.09,47.59359,-54.27349
2023-03-12 10:34:00+00:00,9.0,7.77,10.0,9.82,12.09,47.59359,-54.27349
2023-03-12 10:44:00+00:00,6.0,8.65,8.0,10.05,12.09,47.59359,-54.27349
2023-03-12 10:54:00+00:00,3.0,8.91,3.0,10.25,12.09,47.59359,-54.27349
2023-03-12 11:04:00+00:00,6.0,8.69,3.0,9.71,12.09,47.59359,-54.27349
2023-03-12 11:14:00+00:00,16.0,9.13,15.0,10.38,13.37,47.59359,-54.27349
2023-03-12 11:24:00+00:00,23.0,11.59,22.0,13.19,13.37,47.59359,-54.27349
2023-03-12 11:34:00+00:00,20.0,9.97,17.0,11.57,13.37,47.59359,-54.27349
2023-03-12 11:44:00+00:00,21.0,10.25,20.0,11.86,13.37,47.59359,-54.27349
2023-03-12 11:54:00+00:00,17.0,10.36,20.0,11.46,13.37,47.59359,-54.27349
2023-03-12 12:04:00+00:00,20.0,9.71,18.0,10.52,13.37,47.59359,-54.27349
2023-03-12 12:14:00+00:00,16.0,11.53,17.0,13.34,13.53,47.59359,-54.27349
2023-03-12 12:24:00+00:00,24.0,10.45,25.0,11.84,13.53,47.59359,-54.27349
2023-03-12 12:34:00+00:00,24.0,8.11,28.0,8.93,13.53,47.59359,-54.27349
2023-03-12 12:44:00+00:00,21.0,9.72,18.0,11.47,13.53,47.59359,-54.27349
2023-03-12 12:54:00+00:00,22.0,9.02,19.0,10.89,13.53,47.59359,-54.27349
2023-03-12 13:04:00+00:00,21.0,8.26,18.0,10.05,13.53,47.59359,-54.27349
2023-03-12 13:14:00+00:00,19.0,11.16,22.0,12.49,13.6,47.59359,-54.27349
2023-03-12 13:24:00+00:00,27.0,10.21,23.0,11.65,13.6,47.59359,-54.27349
2023-03-12 13:34:00+00:00,26.0,8.95,27.0,10.65,13.6,47.59359,-54.27349
2023-03-12 13:44:00+00:00,33.0,10.3,37.0,11.9,13.6,47.59359,-54.27349
2023-03-12 13:54:00+00:00,20.0,7.23,31.0,9.46,13.6,47.59359,-54.27349
2023-03-12 14:04:00+00:00,19.0,10.11,16.0,12.13,13.6,47.59359,-54.27349
2023-03-12 14:14:00+00:00,26.0,9.62,25.0,10.82,14.4,47.59359,-54.27349
2023-03-12 14:24:00+00:00,27.0,10.16,31.0,11.37,14.4,47.59359,-54.27349
2023-03-12 14:34:00+00:00,21.0,9.71,23.0,12.8,14.4,47.59359,-54.27349
2023-03-12 14:44:00+00:00,17.0,10.18,10.0,12.07,14.4,47.59359,-54.27349
2023-03-12 14:54:00+00:00,30.0,11.69,31.0,13.37,14.4,47.59359,-54.27349
2023-03-12 15:04:00+00:00,20.0,9.6,21.0,11.51,14.4,47.59359,-54.27349
2023-03-12 15:14:00+00:00,16.0,9.85,17.0,11.22,13.68,47.59359,-54.27349
2023-03-12 15:24:00+00:00,24.0,10.49,23.0,11.69,13.68,47.59359,-54.27349
2023-03-12 15:34:00+00:00,28.0,10.8,35.0,12.02,13.68,47.59359,-54.27349
2023-03-12 15:44:00+00:00,34.0,11.31,33.0,13.0,13.68,47.59359,-54.27349
2023-03-12 15:54:00+00:00,34.0,11.46,38.0,13.43,13.68,47.59359,-54.27349
2023-03-12 16:04:00+00:00,33.0,9.89,33.0,11.86,13.68,47.59359,-54.27349
2023-03-12 16:14:00+00:00,24.0,8.89,23.0,10.67,13.6,47.59359,-54.27349
2023-03-12 16:24:00+00:00,31.0,9.82,36.0,11.26,13.6,47.59359,-54.27349
2023-03-12 16:34:00+00:00,30.0,10.28,32.0,11.79,13.6,47.59359,-54.27349
2023-03-12 16:44:00+00:00,38.0,9.57,40.0,11.43,13.6,47.59359,-54.27349
2023-03-12 16:54:00+00:00,32.0,10.02,32.0,10.85,13.6,47.59359,-54.27349
2023-03-12 17:04:00+00:00,27.0,10.86,38.0,12.01,13.6,47.59359,-54.27349
2023-03-12 17:14:00+00:00,32.0,11.06,37.0,12.3,13.76,47.59359,-54.27349
2023-03-12 17:24:00+00:00,29.0,8.86,34.0,10.64,13.76,47.59359,-54.27349
2023-03-12 17:34:00+00:00,35.0,9.67,41.0,11.22,13.76,47.59359,-54.27349
2023-03-12 17:44:00+00:00,28.0,9.51,28.0,10.67,13.76,47.59359,-54.27349
2023-03-12 17:54:00+00:00,23.0,9.71,37.0,11.38,13.76,47.59359,-54.27349
2023-03-12 18:04:00+00:00,18.0,9.19,19.0,10.61,13.76,47.59359,-54.27349
2023-03-12 18:14:01+00:00,22.0,9.69,22.0,10.85,13.6,47.59359,-54.27349
2023-03-12 18:24:01+00:00,25.0,9.84,25.0,11.36,13.6,47.59359,-54.27349
2023-03-12 18:34:01+00:00,24.0,10.72,36.0,12.18,13.6,47.59359,-54.27349
2023-03-12 18:44:01+00:00,30.0,8.38,32.0,9.67,13.6,47.59359,-54.27349
2023-03-12 18:54:01+00:00,31.0,10.72,34.0,12.67,13.6,47.59359,-54.27349
2023-03-12 19:04:01+00:00,28.0,9.62,33.0,11.13,13.6,47.59359,-54.27349
2023-03-12 19:14:00+00:00,28.0,9.83,36.0,10.85,13.68,47.59359,-54.27349
2023-03-12 19:24:00+00:00,26.0,11.67,27.0,13.17,13.68,47.59359,-54.27349
2023-03-12 19:34:00+00:00,29.0,9.17,30.0,10.64,13.68,47.59359,-54.27349
2023-03-12 19:44:00+00:00,24.0,11.21,28.0,12.98,13.68,47.59359,-54.27349
2023-03-12 19:54:00+00:00,27.0,10.8,29.0,12.97,13.68,47.59359,-54.27349
2023-03-12 20:04:00+00:00,38.0,11.8,33.0,12.86,13.68,47.59359,-54.27349
2023-03-12 20:14:00+00:00,28.0,11.39,31.0,13.58,13.76,47.59359,-54.27349
2023-03-12 20:24:00+00:00,22.0,10.51,19.0,11.95,13.76,47.59359,-54.27349
2023-03-12 20:34:00+00:00,23.0,11.53,27.0,14.12,13.76,47.59359,-54.27349
2023-03-12 20:44:00+00:00,28.0,11.76,30.0,13.24,13.76,47.59359,-54.27349
2023-03-12 20:54:00+00:00,25.0,10.69,23.0,12.16,13.76,47.59359,-54.27349
2023-03-12 21:04:00+00:00,24.0,10.55,24.0,12.75,13.76,47.59359,-54.27349
2023-03-12 21:14:00+00:00,24.0,11.1,31.0,12.72,13.21,47.59359,-54.27349
2023-03-12 21:24:00+00:00,27.0,10.75,19.0,12.11,13.21,47.59359,-54.27349
2023-03-12 21:34:00+00:00,24.0,12.06,18.0,14.84,13.21,47.59359,-54.27349
2023-03-12 21:44:00+00:00,27.0,10.84,33.0,12.54,13.21,47.59359,-54.27349
2023-03-12 21:54:00+00:00,28.0,11.29,26.0,13.35,13.21,47.59359,-54.27349
2023-03-12 22:04:00+00:00,28.0,12.15,33.0,14.31,13.21,47.59359,-54.27349
2023-03-12 22:14:00+00:00,26.0,11.01,25.0,13.05,12.57,47.59359,-54.27349
2023-03-12 22:24:00+00:00,29.0,10.66,35.0,12.73,12.57,47.59359,-54.27349
2023-03-12 22:34:00+00:00,23.0,10.64,23.0,12.33,12.57,47.59359,-54.27349
2023-03-12 22:44:00+00:00,24.0,12.25,24.0,13.87,12.57,47.59359,-54.27349
2023-03-12 22:54:00+00:00,25.0,11.6,20.0,13.14,12.57,47.59359,-54.27349
2023-03-12 23:04:00+00:00,20.0,11.09,17.0,12.42,12.57,47.59359,-54.27349
2023-03-12 23:14:00+00:00,24.0,12.22,22.0,13.83,12.33,47.59359,-54.27349
2023-03-12 23:24:00+00:00,18.0,10.75,13.0,12.27,12.33,47.59359,-54.27349
2023-03-12 23:34:00+00:00,19.0,10.27,18.0,12.32,12.33,47.59359,-54.27349
2023-03-12 23:44:00+00:00,22.0,11.63,21.0,12.65,12.33,47.59359,-54.27349
2023-03-12 23:54:00+00:00,24.0,12.44,24.0,13.82,12.33,47.59359,-54.27349
